Regional Weather Roundup
Issued by NWS

Home | Current Version | Previous Version | Graphics & Text | Print | Product List | Glossary Off
Versions: 1 2 3 4 5 6 7 8 9 10 11 12 13 14 15 16 17 18 19 20 21 22 23 24 25 26 27 28 29 30 31 32 33 34 35 36 37 38 39 40 41 42 43 44 45 46 47 48 49 50

000
ASUS43 KDMX 251408
RWRIA

WEATHER ROUNDUP FOR IOWA
NATIONAL WEATHER SERVICE DES MOINES IA
900 AM CDT MON JUL 25 2016

NOTE: "FAIR" INDICATES FEW OR NO CLOUDS BELOW 12,000 FEET WITH NO
SIGNIFICANT WEATHER AND/OR OBSTRUCTIONS TO VISIBILITY.

* - THESE STATIONS ARE NOT NWS STATIONS...THUS NOT UNDER NWS
QUALITY CONTROL.  THEY ALSO DO NOT REPORT WEATHER SUCH
AS PRECIPITATION OR FOG.

IAZ001>003-012>014-020>022-031>034-043>046-251500-
   NORTHWEST IOWA

CITY           SKY/WX    TMP DP  RH WIND       PRES   REMARKS
CARROLL *      SUNNY     73  66  78 N3        30.12S
CHEROKEE *     SUNNY     70  66  89 CALM      30.14R
DENISON *      SUNNY     72  68  88 CALM      30.11F
LE MARS *      SUNNY     70  63  78 CALM      30.14S
SHELDON *      SUNNY     70  66  88 CALM      30.13S
SIOUX CITY     SUNNY     72  65  78 CALM      30.13S
SPENCER          N/A     70  64  81 SW3       30.14R
STORM LAKE *   SUNNY     73  63  68 CALM      30.14S
$$

IAZ055>058-069>071-079>083-090>094-251500-
   SOUTHWEST IOWA

CITY           SKY/WX    TMP DP  RH WIND       PRES   REMARKS
ATLANTIC *     SUNNY     73  66  78 NE5       30.12R
CLARINDA *       N/A     73  68  83 MISG      30.13S
COUNCIL BLFS * MOSUNNY   73  64  73 E7        30.12R
CRESTON *      CLOUDY    73  66  78 NE7       30.12S
HARLAN  *      SUNNY     72  68  88 N6        30.15S
LAMONI         MOSUNNY   71  66  84 N5        30.10S
RED OAK *      PTSUNNY   70  64  83 CALM      30.12R
SHENANDOAH *   PTSUNNY   72  68  88 CALM      30.12S
$$

IAZ047>049-059>061-072>074-084-251500-
   CENTRAL IOWA

CITY           SKY/WX    TMP DP  RH WIND       PRES   REMARKS
AMES           SUNNY     75  68  78 N6        30.09F
ANKENY *         N/A    N/A N/A N/A MISG        N/A
BOONE *        SUNNY     75  68  78 N7        30.10S
CHARITON *       N/A    N/A N/A N/A MISG        N/A
DES MOINES     MOSUNNY   78  65  63 N7        30.08S HX  80
GRINNELL*      SUNNY     74  67  78 NW7       30.08F
KNOXVILLE *    SUNNY     75  66  73 VRB5      30.07S
MARSHALLTOWN   SUNNY     73  68  84 NW9       30.08S
NEWTON *       SUNNY     75  68  78 N10       30.07F
PELLA *        SUNNY     74  65  73 CALM      30.09S
PERRY *          N/A     73  69  87 N3        30.11S
$$

IAZ004>006-015-016-023>025-035-036-251500-
   NORTH CENTRAL IOWA

CITY           SKY/WX    TMP DP  RH WIND       PRES   REMARKS
ALGONA *       SUNNY     73  66  78 CALM      30.12S
ESTHERVILLE    SUNNY     71  67  87 W6        30.13R
FORT DODGE *   SUNNY     72  66  83 CALM      30.13R
MASON CITY     SUNNY     73  65  75 W5        30.12S
FOREST CITY *    N/A     72  66  83 CALM      30.11S
IOWA FALLS *     N/A     73  68  82 W3        30.11S
$$

IAZ007>011-017>019-026>030-037>042-050>054-066-251500-
   NORTHEAST IOWA

CITY           SKY/WX    TMP DP  RH WIND       PRES   REMARKS
CEDAR RAPIDS   CLOUDY    74  69  85 N3        30.06S
CHARLES CITY * SUNNY     72  68  88 NW6       30.10S
CLINTON *      CLOUDY    76  69  79 N8        30.04S
DECORAH *      SUNNY     72  66  83 NW3       30.07S
DUBUQUE        SUNNY     75  65  70 N6        30.05F
MONTICELLO *   SUNNY     75  66  73 VRB6      30.05S
OELWEIN *      SUNNY     72  68  88 NW8       30.09R
WATERLOO       SUNNY     74  66  76 NW7       30.07S
$$

IAZ064-065-067-068-078-251500-
   EAST CENTRAL IOWA

CITY           SKY/WX    TMP DP  RH WIND       PRES   REMARKS
DAVENPORT      MOSUNNY   74  67  78 N7        30.04F
IOWA CITY      CLOUDY    76  66  71 N6        30.07S
MT. PLEASANT * CLOUDY    76  71  85 N8        30.04S
MUSCATINE *    MOSUNNY   75  68  78 N10       30.04S
QUAD CITIES    MOSUNNY   77  66  68 N7        30.02F
$$

IAZ062-063-075>077-085>089-095>099-251500-
   SOUTHEAST IOWA

CITY           SKY/WX    TMP DP  RH WIND       PRES   REMARKS
BURLINGTON     CLOUDY    74  69  85 N12       30.03S
FAIRFIELD *    MOSUNNY   73  66  78 N9        30.06S
KEOKUK *       PTSUNNY   73  68  83 N8        30.02S
CENTERVILLE *    N/A     73  66  78 CALM      30.10R
OTTUMWA        CLOUDY    73  65  75 N5        30.08R
WASHINGTON *   CLOUDY    73  68  83 N8        30.07S
$$

ABBREVIATIONS USED IN REMARKS
   TC - TEMPERATURES IN CELSIUS
  WCI - WIND CHILL INDEX
   HX - HEAT INDEX
  VSB - VISIBILITY
$$





USA.gov is the U.S. government's official web portal to all federal, state and local government web resources and services.